When you browse on this site, cookies collect data to enhance your experience and personalize the content and advertising you see.
Visit our Privacy Policy to learn more. By continuing to use the site, you agree to this use of cookies and data.
  • In Lithuania
  • List of Countries
  • For 7 days
  • Water Temperature
  • Satellite Maps
  • Weather Map
  • Weather Widgets
  • user-avatar
    Login

    Hourly Weather Garissa

    Today, 17 January, Thursday

    Time Temperature Precipitation Wind Pressure Humidity
    00:00 +32°C° 0 mm 6 mps 745 mmHg 59%
    01:00 +30°C° 0 mm 6 mps 745 mmHg 61%
    02:00 +29°C° 0 mm 5 mps 745 mmHg 64%
    03:00 +29°C° 0 mm 4 mps 745 mmHg 66%
    04:00 +28°C° 0 mm 3 mps 745 mmHg 67%
    05:00 +28°C° 0 mm 3 mps 745 mmHg 69%
    06:00 +27°C° 0 mm 2 mps 745 mmHg 71%
    07:00 +28°C° 0 mm 2 mps 746 mmHg 68%
    08:00 +29°C° 0 mm 2 mps 746 mmHg 64%
    09:00 +29°C° 0 mm 2 mps 746 mmHg 61%
    10:00 +31°C° 0 mm 2 mps 746 mmHg 55%
    11:00 +32°C° 0 mm 2 mps 746 mmHg 49%
    12:00 +33°C° 0 mm 1 mps 745 mmHg 43%
    13:00 +34°C° 0 mm 1 mps 744 mmHg 40%
    14:00 +36°C° 0 mm 2 mps 744 mmHg 37%
    15:00 +37°C° 0 mm 2 mps 743 mmHg 33%
    16:00 +37°C° 0 mm 2 mps 743 mmHg 33%
    17:00 +37°C° 0 mm 2 mps 743 mmHg 32%
    18:00 +37°C° 0 mm 2 mps 742 mmHg 31%
    19:00 +37°C° 0 mm 2 mps 743 mmHg 33%
    20:00 +36°C° 0 mm 2 mps 743 mmHg 35%
    21:00 +34°C° 0 mm 1 mps 743 mmHg 37%
    22:00 +34°C° 0 mm 2 mps 744 mmHg 41%
    23:00 +33°C° 0 mm 4 mps 744 mmHg 45%

    Tomorrow, 18 January, Friday

    Time Temperature Precipitation Wind Pressure Humidity
    00:00 +32°C° 0 mm 5 mps 744 mmHg 49%
    01:00 +30°C° 0 mm 5 mps 744 mmHg 54%
    02:00 +29°C° 0 mm 4 mps 744 mmHg 60%
    03:00 +28°C° 0 mm 4 mps 743 mmHg 65%
    04:00 +28°C° 0 mm 3 mps 744 mmHg 67%
    05:00 +27°C° 0 mm 3 mps 744 mmHg 69%
    06:00 +27°C° 0 mm 2 mps 745 mmHg 71%
    07:00 +28°C° 0 mm 2 mps 745 mmHg 68%
    08:00 +28°C° 0 mm 2 mps 746 mmHg 66%
    09:00 +29°C° 0 mm 2 mps 746 mmHg 64%
    10:00 +31°C° 0 mm 2 mps 746 mmHg 57%
    11:00 +32°C° 0 mm 2 mps 745 mmHg 50%
    12:00 +35°C° 0 mm 2 mps 745 mmHg 42%
    13:00 +36°C° 0 mm 2 mps 744 mmHg 37%
    14:00 +37°C° 0 mm 3 mps 743 mmHg 32%
    15:00 +39°C° 0 mm 3 mps 742 mmHg 27%
    16:00 +38°C° 0 mm 4 mps 742 mmHg 27%
    17:00 +38°C° 0 mm 4 mps 742 mmHg 26%
    18:00 +38°C° 0 mm 4 mps 742 mmHg 25%
    19:00 +37°C° 0 mm 3 mps 742 mmHg 27%
    20:00 +36°C° 0 mm 3 mps 743 mmHg 29%
    21:00 +35°C° 0 mm 2 mps 743 mmHg 31%
    22:00 +34°C° 0 mm 3 mps 744 mmHg 37%
    23:00 +33°C° 0 mm 4 mps 744 mmHg 43%

    Day after tomorrow, 19 January, Saturday

    Time Temperature Precipitation Wind Pressure Humidity
    00:00 +32°C° 0 mm 5 mps 744 mmHg 48%
    01:00 +30°C° 0 mm 5 mps 744 mmHg 54%
    02:00 +29°C° 0 mm 4 mps 744 mmHg 60%
    03:00 +28°C° 0 mm 4 mps 744 mmHg 66%
    04:00 +27°C° 0 mm 3 mps 744 mmHg 67%
    05:00 +27°C° 0 mm 3 mps 744 mmHg 68%
    06:00 +27°C° 0 mm 2 mps 745 mmHg 69%
    07:00 +28°C° 0 mm 3 mps 745 mmHg 66%
    08:00 +28°C° 0 mm 3 mps 746 mmHg 63%
    09:00 +29°C° 0 mm 3 mps 746 mmHg 60%
    10:00 +31°C° 0 mm 3 mps 746 mmHg 53%
    11:00 +33°C° 0 mm 3 mps 746 mmHg 46%
    12:00 +35°C° 0 mm 3 mps 745 mmHg 40%
    13:00 +36°C° 0 mm 3 mps 744 mmHg 36%
    14:00 +37°C° 0 mm 4 mps 743 mmHg 32%
    15:00 +38°C° 0 mm 4 mps 742 mmHg 28%
    16:00 +38°C° 0 mm 4 mps 742 mmHg 27%
    17:00 +38°C° 0 mm 4 mps 742 mmHg 26%
    18:00 +38°C° 0 mm 3 mps 742 mmHg 24%
    19:00 +37°C° 0 mm 3 mps 743 mmHg 26%
    20:00 +36°C° 0 mm 2 mps 744 mmHg 29%
    21:00 +34°C° 0 mm 1 mps 744 mmHg 31%
    22:00 +34°C° 0 mm 2 mps 744 mmHg 33%
    23:00 +32°C° 0 mm 2 mps 745 mmHg 36%

    20 January, Sunday

    Time Temperature Precipitation Wind Pressure Humidity
    00:00 +31°C° 0 mm 3 mps 745 mmHg 39%
    01:00 +30°C° 0 mm 3 mps 745 mmHg 49%
    02:00 +29°C° 0 mm 4 mps 744 mmHg 59%
    03:00 +28°C° 0 mm 4 mps 744 mmHg 69%
    04:00 +27°C° 0 mm 3 mps 745 mmHg 70%
    05:00 +27°C° 0 mm 3 mps 745 mmHg 71%
    06:00 +27°C° 0 mm 2 mps 746 mmHg 72%
    07:00 +27°C° 0 mm 2 mps 746 mmHg 69%
    08:00 +28°C° 0 mm 2 mps 747 mmHg 66%
    09:00 +29°C° 0 mm 1 mps 747 mmHg 63%
    10:00 +31°C° 0 mm 1 mps 747 mmHg 56%
    11:00 +32°C° 0 mm 2 mps 746 mmHg 49%
    12:00 +35°C° 0 mm 2 mps 746 mmHg 41%
    13:00 +36°C° 0 mm 2 mps 745 mmHg 37%
    14:00 +37°C° 0 mm 3 mps 744 mmHg 33%
    15:00 +38°C° 0 mm 3 mps 743 mmHg 28%
    16:00 +38°C° 0 mm 3 mps 743 mmHg 27%
    17:00 +38°C° 0 mm 3 mps 743 mmHg 26%
    18:00 +38°C° 0 mm 3 mps 743 mmHg 25%
    19:00 +37°C° 0 mm 3 mps 743 mmHg 27%
    20:00 +36°C° 0 mm 2 mps 744 mmHg 29%
    21:00 +35°C° 0 mm 2 mps 744 mmHg 31%
    22:00 +34°C° 0 mm 3 mps 745 mmHg 38%
    23:00 +33°C° 0 mm 5 mps 745 mmHg 45%

    21 January, Monday

    Time Temperature Precipitation Wind Pressure Humidity
    00:00 +32°C° 0 mm 6 mps 745 mmHg 52%
    01:00 +30°C° 0 mm 5 mps 745 mmHg 58%
    02:00 +29°C° 0 mm 4 mps 745 mmHg 64%
    03:00 +28°C° 0 mm 3 mps 744 mmHg 70%
    04:00 +28°C° 0 mm 3 mps 745 mmHg 71%
    05:00 +27°C° 0 mm 2 mps 745 mmHg 71%
    06:00 +27°C° 0 mm 2 mps 746 mmHg 72%
    07:00 +28°C° 0 mm 2 mps 746 mmHg 70%
    08:00 +28°C° 0 mm 2 mps 747 mmHg 67%
    09:00 +29°C° 0 mm 2 mps 747 mmHg 64%
    10:00 +31°C° 0 mm 2 mps 747 mmHg 57%
    11:00 +32°C° 0 mm 2 mps 746 mmHg 50%
    12:00 +35°C° 0 mm 2 mps 745 mmHg 43%
    13:00 +36°C° 0 mm 2 mps 744 mmHg 39%
    14:00 +37°C° 0 mm 3 mps 743 mmHg 35%
    15:00 +38°C° 0 mm 3 mps 743 mmHg 30%
    16:00 +38°C° 0 mm 3 mps 743 mmHg 29%
    17:00 +38°C° 0 mm 3 mps 743 mmHg 27%
    18:00 +39°C° 0 mm 3 mps 743 mmHg 26%
    19:00 +38°C° 0 mm 3 mps 743 mmHg 28%
    20:00 +36°C° 0 mm 2 mps 743 mmHg 30%
    21:00 +35°C° 0 mm 2 mps 744 mmHg 31%
    22:00 +34°C° 0 mm 3 mps 744 mmHg 38%
    23:00 +33°C° 0 mm 5 mps 744 mmHg 45%

    22 January, Tuesday

    Time Temperature Precipitation Wind Pressure Humidity
    00:00 +32°C° 0 mm 6 mps 744 mmHg 52%
    01:00 +30°C° 0 mm 5 mps 744 mmHg 58%
    02:00 +29°C° 0 mm 5 mps 744 mmHg 64%
    03:00 +28°C° 0 mm 4 mps 744 mmHg 70%
    04:00 +28°C° 0 mm 3 mps 744 mmHg 71%
    05:00 +27°C° 0 mm 3 mps 745 mmHg 72%
    06:00 +27°C° 0 mm 2 mps 745 mmHg 73%
    07:00 +28°C° 0 mm 3 mps 746 mmHg 71%
    08:00 +28°C° 0 mm 3 mps 746 mmHg 69%
    09:00 +29°C° 0 mm 3 mps 747 mmHg 67%
    10:00 +30°C° 0 mm 3 mps 746 mmHg 61%
    11:00 +33°C° 0 mm 3 mps 746 mmHg 54%
    12:00 +34°C° 0 mm 3 mps 745 mmHg 47%
    13:00 +36°C° 0 mm 3 mps 745 mmHg 42%
    14:00 +37°C° 0 mm 3 mps 744 mmHg 37%
    15:00 +38°C° 0 mm 3 mps 743 mmHg 32%
    16:00 +38°C° 0 mm 4 mps 743 mmHg 31%
    17:00 +38°C° 0 mm 4 mps 743 mmHg 30%
    18:00 +38°C° 0 mm 4 mps 743 mmHg 29%
    19:00 +37°C° 0 mm 3 mps 743 mmHg 30%
    20:00 +36°C° 0 mm 3 mps 744 mmHg 32%
    21:00 +35°C° 0 mm 2 mps 744 mmHg 33%
    22:00 +34°C° 0 mm 3 mps 744 mmHg 40%
    23:00 +33°C° 0 mm 5 mps 744 mmHg 47%
    Show more